Location: Unspecified
(0.0000°N, 0.0000°E)
Time: 05:51:36
(UTC+00:00)

Tiros 1 - Visible Passes

Search period start: 20 April 2014 00:00
Search period end: 30 April 2014 00:00
Orbit: 633 x 668 km, 48.4° (Epoch: 19 April)

Date Brightness Start Highest point End Pass type
(mag) Time Alt. Az. Time Alt. Az. Time Alt. Az.
20 Apr 10.1 04:59:35 10° NNE 05:02:12 15° NE 05:04:48 10° E visible
20 Apr 9.5 18:54:11 10° WSW 18:57:56 24° NW 19:01:43 10° N visible
21 Apr 8.4 05:24:52 10° NNW 05:29:29 47° NE 05:34:05 10° SE visible
22 Apr 10.1 04:12:10 10° NNE 04:14:32 14° NE 04:16:54 10° E visible
23 Apr 8.4 04:37:15 10° NNW 04:41:49 43° NE 04:46:23 10° ESE visible
24 Apr 10.1 03:25:04 11° NNE 03:26:51 13° NE 03:28:56 10° ENE visible
24 Apr 7.3 05:04:20 10° NW 05:09:02 53° SW 05:13:43 10° SSE visible
25 Apr 8.3 03:53:46 40° NE 03:54:09 41° NE 03:58:40 10° ESE visible
26 Apr 7.5 04:22:09 50° SSW 04:22:09 50° SSW 04:26:05 10° SSE visible
27 Apr 9.0 04:50:10 15° SSW 04:50:10 15° SSW 04:51:48 10° S visible
